Starlink 31104

operational
NORAD ID: 58672 Int'l Des: 2023-211 Owner: SPXS Country: US Constellation: starlink
LEOCIRCULAR

Starlink 31104について

説明を読み込み中...

リアルタイム位置

3D地球を読み込み中...

次回通過

高度履歴

Altitude vs Time

uPlot chart will show altitude changes over time

軌道要素

1 58672U 23211F 25260.70561405 -.00001317 00000-0 -38363-4 0 9991
2 58672 43.0028 341.7977 0000938 270.4169 89.6575 15.27571766 97298
Epoch: Sep 17, 2025 • Age: 31 hours

現在のステータス

高度 493.9 km
速度 7.62 km/s
衛星直下点 -38.52°S, 82.27°W
打ち上げ日 Dec 29, 2023
運用期間 1.7 years
タイプ internet

技術仕様

分類 Payload
質量 730.00 kg
乾燥質量 700.00 kg
総質量 730.00 kg
長さ 0.30 m
直径 4.10 m
スパン 29.00 m
形状 Box + pan
製造者 SPXS
バスタイプ Starlink V2M
フェーズステータス In Orbit
所有者/国 SPXS/US

大規模コンステレーション

Loading constellations...